When you browse on this site, cookies collect data to enhance your experience and personalize the content and advertising you see.
Visit our Privacy Policy to learn more. By continuing to use the site, you agree to this use of cookies and data.
  • în România
  • Lista ţărilor
  • Pe 7 zile
  • Temperatura apei
  • Hartă satelitară
  • Meteo pe hartă
  • Widget-uri
  • user-avatar
    Intrare

    Meteo pe oră la Lewis

    Astăzi, 19 Aprilie, Vineri

    Timp Temperatura Precipitaţii Vânt Presiune Umiditate
    00:00 +11°C° 0 mm 3 m/s 761 mmHg 73%
    01:00 +11°C° 0 mm 3 m/s 760 mmHg 74%
    02:00 +11°C° 0 mm 3 m/s 760 mmHg 74%
    03:00 +11°C° 0 mm 3 m/s 760 mmHg 74%
    04:00 +10°C° 0 mm 4 m/s 760 mmHg 74%
    05:00 +10°C° 0 mm 4 m/s 760 mmHg 74%
    06:00 +10°C° 0 mm 4 m/s 760 mmHg 74%
    07:00 +10°C° 0 mm 5 m/s 760 mmHg 72%
    08:00 +12°C° 0 mm 5 m/s 760 mmHg 69%
    09:00 +13°C° 0 mm 6 m/s 760 mmHg 67%
    10:00 +13°C° 0 mm 6 m/s 760 mmHg 65%
    11:00 +14°C° 0 mm 6 m/s 761 mmHg 64%
    12:00 +14°C° 0 mm 7 m/s 761 mmHg 63%
    13:00 +15°C° 0 mm 7 m/s 760 mmHg 62%
    14:00 +15°C° 0 mm 7 m/s 760 mmHg 62%
    15:00 +15°C° 0 mm 8 m/s 760 mmHg 61%
    16:00 +15°C° 0 mm 8 m/s 760 mmHg 64%
    17:00 +13°C° 0 mm 8 m/s 760 mmHg 66%
    18:00 +13°C° 0 mm 8 m/s 760 mmHg 68%
    19:00 +12°C° 0 mm 7 m/s 760 mmHg 72%
    20:00 +11°C° 0 mm 7 m/s 760 mmHg 76%
    21:00 +11°C° 0 mm 7 m/s 760 mmHg 80%
    22:00 +10°C° 0 mm 7 m/s 760 mmHg 83%
    23:00 +10°C° 0 mm 7 m/s 760 mmHg 86%

    Mâine, 20 Aprilie, Sâmbătă

    Timp Temperatura Precipitaţii Vânt Presiune Umiditate
    00:00 +10°C° 0 mm 7 m/s 760 mmHg 89%
    01:00 +10°C° 0 mm 7 m/s 760 mmHg 90%
    02:00 +9°C° 0 mm 7 m/s 760 mmHg 91%
    03:00 +9°C° 0 mm 7 m/s 760 mmHg 93%
    04:00 +9°C° 0 mm 7 m/s 761 mmHg 93%
    05:00 +9°C° 0 mm 6 m/s 761 mmHg 93%
    06:00 +9°C° 0 mm 6 m/s 761 mmHg 93%
    07:00 +10°C° 0 mm 6 m/s 761 mmHg 90%
    08:00 +10°C° 0 mm 6 m/s 761 mmHg 87%
    09:00 +10°C° 0 mm 6 m/s 761 mmHg 84%
    10:00 +10°C° 0 mm 6 m/s 762 mmHg 80%
    11:00 +11°C° 0 mm 6 m/s 762 mmHg 76%
    12:00 +11°C° 0 mm 6 m/s 762 mmHg 72%
    13:00 +11°C° 0 mm 6 m/s 762 mmHg 71%
    14:00 +11°C° 0 mm 6 m/s 762 mmHg 70%
    15:00 +11°C° 0 mm 6 m/s 762 mmHg 70%
    16:00 +10°C° 0 mm 5 m/s 762 mmHg 72%
    17:00 +10°C° 0 mm 5 m/s 762 mmHg 74%
    18:00 +10°C° 0 mm 4 m/s 762 mmHg 76%
    19:00 +10°C° 0.1 mm 3 m/s 762 mmHg 79%
    20:00 +10°C° 0.1 mm 2 m/s 762 mmHg 82%
    21:00 +9°C° 0.1 mm 2 m/s 762 mmHg 85%
    22:00 +9°C° 0.2 mm 2 m/s 761 mmHg 87%
    23:00 +10°C° 0.2 mm 1 m/s 760 mmHg 88%

    Poimâine, 21 Aprilie, Duminică

    Timp Temperatura Precipitaţii Vânt Presiune Umiditate
    00:00 +10°C° 0.2 mm 1 m/s 759 mmHg 89%
    01:00 +8°C° 1.3 mm 2 m/s 758 mmHg 91%
    02:00 +8°C° 1.3 mm 3 m/s 757 mmHg 92%
    03:00 +7°C° 1.3 mm 5 m/s 756 mmHg 94%
    04:00 +8°C° 1.7 mm 5 m/s 755 mmHg 94%
    05:00 +8°C° 1.7 mm 5 m/s 754 mmHg 94%
    06:00 +8°C° 1.7 mm 5 m/s 753 mmHg 94%
    07:00 +9°C° 0.2 mm 7 m/s 752 mmHg 92%
    08:00 +10°C° 0.2 mm 8 m/s 751 mmHg 91%
    09:00 +9°C° 0.2 mm 10 m/s 750 mmHg 89%
    10:00 +9°C° 0.7 mm 10 m/s 750 mmHg 90%
    11:00 +9°C° 0.7 mm 10 m/s 749 mmHg 90%
    12:00 +9°C° 0.7 mm 10 m/s 749 mmHg 91%
    13:00 +9°C° 1.1 mm 10 m/s 749 mmHg 91%
    14:00 +10°C° 1.1 mm 9 m/s 748 mmHg 92%
    15:00 +10°C° 1.1 mm 9 m/s 748 mmHg 93%
    16:00 +9°C° 0.3 mm 8 m/s 748 mmHg 93%
    17:00 +9°C° 0.3 mm 7 m/s 747 mmHg 94%
    18:00 +9°C° 0.3 mm 6 m/s 747 mmHg 94%
    19:00 +9°C° 0.1 mm 6 m/s 747 mmHg 94%
    20:00 +9°C° 0.1 mm 5 m/s 746 mmHg 93%
    21:00 +9°C° 0.1 mm 5 m/s 746 mmHg 93%
    22:00 +10°C° 0.3 mm 4 m/s 746 mmHg 94%
    23:00 +10°C° 0.3 mm 4 m/s 745 mmHg 95%

    22 Aprilie, Luni

    Timp Temperatura Precipitaţii Vânt Presiune Umiditate
    00:00 +10°C° 0.3 mm 4 m/s 745 mmHg 96%
    01:00 +10°C° 0.7 mm 5 m/s 744 mmHg 93%
    02:00 +10°C° 0.7 mm 6 m/s 744 mmHg 91%
    03:00 +10°C° 0.7 mm 6 m/s 743 mmHg 89%
    04:00 +10°C° 0.1 mm 7 m/s 743 mmHg 85%
    05:00 +10°C° 0.1 mm 8 m/s 743 mmHg 81%
    06:00 +9°C° 0.1 mm 8 m/s 742 mmHg 77%
    07:00 +10°C° 0 mm 8 m/s 743 mmHg 74%
    08:00 +11°C° 0 mm 9 m/s 743 mmHg 70%
    09:00 +12°C° 0 mm 9 m/s 743 mmHg 67%
    10:00 +12°C° 0 mm 9 m/s 743 mmHg 65%
    11:00 +13°C° 0 mm 9 m/s 743 mmHg 63%
    12:00 +15°C° 0 mm 9 m/s 743 mmHg 61%
    13:00 +15°C° 0 mm 9 m/s 743 mmHg 58%
    14:00 +16°C° 0 mm 9 m/s 742 mmHg 56%
    15:00 +16°C° 0 mm 9 m/s 742 mmHg 53%
    16:00 +16°C° 0 mm 8 m/s 742 mmHg 53%
    17:00 +15°C° 0 mm 7 m/s 742 mmHg 53%
    18:00 +15°C° 0 mm 7 m/s 742 mmHg 53%
    19:00 +14°C° 0 mm 6 m/s 742 mmHg 57%
    20:00 +13°C° 0 mm 5 m/s 742 mmHg 62%
    21:00 +12°C° 0 mm 4 m/s 742 mmHg 66%
    22:00 +12°C° 0 mm 5 m/s 742 mmHg 70%
    23:00 +12°C° 0 mm 5 m/s 742 mmHg 73%

    23 Aprilie, Marţi

    Timp Temperatura Precipitaţii Vânt Presiune Umiditate
    00:00 +10°C° 0 mm 5 m/s 742 mmHg 77%
    01:00 +10°C° 0 mm 5 m/s 742 mmHg 79%
    02:00 +10°C° 0 mm 5 m/s 742 mmHg 80%
    03:00 +11°C° 0 mm 4 m/s 742 mmHg 82%
    04:00 +11°C° 0 mm 4 m/s 742 mmHg 80%
    05:00 +10°C° 0 mm 4 m/s 742 mmHg 78%
    06:00 +10°C° 0 mm 3 m/s 742 mmHg 76%
    07:00 +11°C° 0.1 mm 3 m/s 742 mmHg 74%
    08:00 +11°C° 0.1 mm 3 m/s 742 mmHg 71%
    09:00 +12°C° 0.1 mm 3 m/s 742 mmHg 69%
    10:00 +13°C° 0 mm 3 m/s 742 mmHg 64%
    11:00 +14°C° 0 mm 3 m/s 742 mmHg 60%
    12:00 +16°C° 0 mm 3 m/s 742 mmHg 55%
    13:00 +17°C° 0 mm 3 m/s 741 mmHg 54%
    14:00 +17°C° 0 mm 2 m/s 741 mmHg 53%
    15:00 +18°C° 0 mm 2 m/s 741 mmHg 51%
    16:00 +17°C° 0 mm 2 m/s 741 mmHg 56%
    17:00 +16°C° 0 mm 2 m/s 740 mmHg 62%
    18:00 +14°C° 0 mm 3 m/s 740 mmHg 67%
    19:00 +13°C° 0 mm 3 m/s 740 mmHg 67%
    20:00 +13°C° 0 mm 3 m/s 740 mmHg 68%
    21:00 +13°C° 0 mm 4 m/s 740 mmHg 68%
    22:00 +12°C° 0 mm 4 m/s 740 mmHg 69%
    23:00 +12°C° 0 mm 5 m/s 740 mmHg 69%

    24 Aprilie, Miercuri

    Timp Temperatura Precipitaţii Vânt Presiune Umiditate
    00:00 +10°C° 0 mm 5 m/s 739 mmHg 70%
    01:00 +10°C° 0 mm 5 m/s 739 mmHg 71%
    02:00 +9°C° 0 mm 5 m/s 739 mmHg 72%
    03:00 +9°C° 0 mm 5 m/s 738 mmHg 73%
    04:00 +9°C° 0.2 mm 5 m/s 738 mmHg 75%
    05:00 +8°C° 0.2 mm 5 m/s 738 mmHg 77%
    06:00 +8°C° 0.2 mm 5 m/s 738 mmHg 79%
    07:00 +9°C° 0 mm 5 m/s 738 mmHg 75%
    08:00 +10°C° 0 mm 5 m/s 738 mmHg 72%
    09:00 +10°C° 0 mm 5 m/s 738 mmHg 68%
    10:00 +12°C° 0 mm 5 m/s 738 mmHg 66%
    11:00 +13°C° 0 mm 5 m/s 738 mmHg 64%
    12:00 +14°C° 0 mm 5 m/s 738 mmHg 61%
    13:00 +15°C° 0 mm 5 m/s 737 mmHg 60%
    14:00 +16°C° 0 mm 5 m/s 737 mmHg 58%
    15:00 +17°C° 0 mm 5 m/s 736 mmHg 56%
    16:00 +16°C° 0.2 mm 5 m/s 736 mmHg 63%
    17:00 +15°C° 0.2 mm 5 m/s 736 mmHg 69%
    18:00 +14°C° 0.2 mm 5 m/s 735 mmHg 75%
    19:00 +13°C° 1.5 mm 6 m/s 735 mmHg 75%
    20:00 +11°C° 1.5 mm 8 m/s 735 mmHg 76%
    21:00 +8°C° 1.5 mm 9 m/s 735 mmHg 76%
    22:00 +8°C° 0 mm 9 m/s 735 mmHg 75%
    23:00 +8°C° 0 mm 9 m/s 735 mmHg 74%
    Arată mai mult